Location: Honolulu
(21.3069°N, 157.8583°W)
Time: 01:44:37
(UTC-10:00)

A-11 Canister half - Visible Passes

Search period start: 11 May 2026 00:00
Search period end: 21 May 2026 00:00
Orbit: 1523 x 1685 km, 47.3° (Epoch: 11 May)

Date Brightness Start Highest point End Pass type
(mag) Time Alt. Az. Time Alt. Az. Time Alt. Az.
11 May 10.2 01:40:24 10° NW 01:45:14 33° NNW 01:45:14 33° NNW visible
11 May 10.7 04:02:36 12° S 04:02:36 12° S 04:03:12 10° S visible
11 May 11.2 21:08:27 10° NNW 21:12:47 13° N 21:17:10 10° NNE visible
11 May 10.7 23:14:32 10° NNW 23:22:00 23° NNE 23:25:17 20° NE visible
12 May 10.2 01:18:33 10° NW 01:23:28 34° NNW 01:23:28 34° NNW visible
12 May11.203:43:48S03:43:48S03:21:40WNWvisible
12 May 11.2 20:46:22 10° NNW 20:50:42 13° N 20:55:05 10° NNE visible
12 May 10.7 22:52:43 10° NNW 22:59:59 22° NNE 23:03:43 18° NE visible
13 May 10.1 00:56:42 10° NW 01:01:56 35° NNW 01:01:56 35° NNW visible
13 May 11.2 20:24:15 10° NNW 20:28:37 13° N 20:33:01 10° NNE visible
13 May 10.8 22:30:55 10° NNW 22:37:57 21° NNE 22:42:19 16° NE visible
14 May 10.1 00:34:51 10° NW 00:40:32 38° NNW 00:40:32 38° NNW visible
14 May 11.2 20:02:07 10° NNW 20:06:31 14° N 20:10:58 10° NNE visible
14 May 10.8 22:09:06 10° NNW 22:15:55 20° NNE 22:21:00 14° ENE visible
15 May 10.0 00:13:00 10° NW 00:19:14 41° NNW 00:19:14 41° NNW visible
15 May 11.2 19:39:58 10° NW 19:44:26 14° N 19:48:57 10° NNE visible
15 May 10.8 21:47:17 10° NNW 21:53:53 19° NNE 21:59:47 12° ENE visible
15 May 9.9 23:51:11 10° NW 23:58:01 44° N 23:58:01 44° N visible
16 May 11.2 19:17:49 10° NW 19:22:22 14° N 19:26:58 10° NNE visible
16 May 10.9 21:25:28 10° NNW 21:31:50 18° NNE 21:38:17 10° ENE visible
16 May 9.8 23:29:20 10° NW 23:36:52 46° N 23:36:52 46° N visible
17 May 11.1 01:34:45 10° WNW 01:35:06 11° WNW 01:35:06 11° WNW visible
17 May 10.9 21:03:39 10° NNW 21:09:47 18° NNE 21:16:00 10° ENE visible
17 May 9.7 23:07:31 10° NW 23:15:46 47° NNE 23:15:46 47° NNE visible
18 May 10.9 01:12:45 10° WNW 01:14:01 14° WNW 01:14:01 14° WNW visible
18 May 10.9 20:41:50 10° NNW 20:47:44 17° NNE 20:53:43 10° NE visible
18 May 9.7 22:45:42 10° NNW 22:54:44 47° NNE 22:54:44 47° NNE visible
19 May 10.8 00:50:47 10° WNW 00:52:58 18° WNW 00:52:58 18° WNW visible
19 May 10.9 20:20:01 10° NNW 20:25:41 16° NNE 20:31:25 10° NE visible
19 May 9.7 22:23:53 10° NNW 22:33:17 45° NE 22:33:44 44° NE visible
20 May 10.6 00:28:50 10° NW 00:31:59 23° WNW 00:31:59 23° WNW visible
20 May 10.9 19:58:11 10° NNW 20:03:37 16° NNE 20:09:08 10° NE visible
20 May 9.7 22:02:05 10° NNW 22:11:21 42° NE 22:12:47 40° ENE visible
